,,Stat5,,Stat1,,Stat2,,Stat3,,Stat4,,Wind1,,Wind1,
time,status,PA1M_AVG,status,PR1M_SUM,status,RH1M_AVG,status,SR1M_AVG,status,TA1M_AVG,status,W1dAve1m,status,W1sAve1m,
2000-05-16, 00:00:01,VALID,918.937,VALID,0,VALID,95.2737,VALID,-0.0679233,VALID,21.3034,VALID,83,VALID,1.09987,
2000-05-16, 00:01:00,VALID,918.937,VALID,0,VALID,95.2355,VALID,-0.0679233,VALID,21.3034,VALID,80,VALID,0.998661,
2000-05-16, 00:02:00,VALID,918.949,VALID,0,VALID,95.1999,VALID,-0.0509425,VALID,21.287,VALID,75,VALID,0.8241,
2000-05-16, 00:03:00,VALID,918.967,VALID,0,VALID,95.2228,VALID,-0.0679233,VALID,21.2776,VALID,96,VALID,0.899054,
2000-05-16, 00:04:01,VALID,918.964,VALID,0,VALID,95.4619,VALID,-0.0509425,VALID,21.2741,VALID,97,VALID,0.840179,
2000-05-16, 00:05:00,VALID,918.945,VALID,0,VALID,95.4225,VALID,-0.0679233,VALID,21.3007,VALID,81,VALID,1.00551,
2000-05-16, 00:06:01,VALID,918.929,VALID,0,VALID,95.2597,VALID,-0.0849042,VALID,21.2875,VALID,91,VALID,1.15399,
2000-05-16, 00:07:00,VALID,918.917,VALID,0,VALID,95.3106,VALID,-0.0679233,VALID,21.2808,VALID,98,VALID,1.27924,
2000-05-16, 00:08:00,VALID,918.917,VALID,0,VALID,95.3119,VALID,-0.0169808,VALID,21.2921,VALID,94,VALID,1.74457,
2000-05-16, 00:09:01,VALID,918.924,VALID,0,VALID,95.233,VALID,0.0509425,VALID,21.2954,VALID,85,VALID,1.71495,
2000-05-16, 00:10:00,VALID,918.926,VALID,0,VALID,95.1173,VALID,0.0509425,VALID,21.2927,VALID,94,VALID,1.52069,
2000-05-16, 00:11:01,VALID,918.92,VALID,0,VALID,95.1885,VALID,0.0679233,VALID,21.2671,VALID,90,VALID,1.68176,
2000-05-16, 00:12:00,VALID,918.905,VALID,0,VALID,95.2686,VALID,0.0169808,VALID,21.228,VALID,71,VALID,1.33313,
2000-05-16, 00:13:01,VALID,918.892,VALID,0,VALID,95.3996,VALID,0.0169808,VALID,21.1825,VALID,58,VALID,1.43685,
2000-05-16, 00:14:00,VALID,918.865,VALID,0,VALID,95.7111,VALID,0,VALID,21.1438,VALID,85,VALID,1.19026,
2000-05-16, 00:15:01,VALID,918.843,VALID,0,VALID,95.8447,VALID,0.0169808,VALID,21.1244,VALID,90,VALID,1.0204,
2000-05-16, 00:16:00,VALID,918.845,VALID,0,VALID,95.9502,VALID,0.0509425,VALID,21.1311,VALID,86,VALID,1.04253,
2000-05-16, 00:17:00,VALID,918.823,VALID,0,VALID,95.8879,VALID,0.0169808,VALID,21.1053,VALID,80,VALID,1.2222,
2000-05-16, 00:18:01,VALID,918.814,VALID,0,VALID,95.9604,VALID,0.0339617,VALID,21.1018,VALID,85,VALID,0.717483,
2000-05-16, 00:19:00,VALID,918.789,VALID,0,VALID,96.085,VALID,0.0169808,VALID,21.1155,VALID,97,VALID,1.05201,
2000-05-16, 00:20:00,VALID,918.753,VALID,0,VALID,96.0265,VALID,0.0679233,VALID,21.1214,VALID,92,VALID,1.44271,
2000-05-16, 00:21:00,VALID,918.715,VALID,0,VALID,95.9705,VALID,0.0509425,VALID,21.1343,VALID,93,VALID,1.42314,
2000-05-16, 00:22:00,VALID,918.692,VALID,0,VALID,95.8065,VALID,0.0849042,VALID,21.1341,VALID,86,VALID,1.31905,
2000-05-16, 00:23:00,VALID,918.658,VALID,0,VALID,95.7887,VALID,-0.0679233,VALID,21.1157,VALID,82,VALID,1.23438,
2000-05-16, 00:24:01,VALID,918.644,VALID,0,VALID,95.715,VALID,-0.0679233,VALID,21.1163,VALID,88,VALID,1.33051,
2000-05-16, 00:25:00,VALID,918.621,VALID,0,VALID,95.598,VALID,-0.101885,VALID,21.1098,VALID,85,VALID,1.32682,
2000-05-16, 00:26:00,VALID,918.62,VALID,0,VALID,95.6018,VALID,-0.0339617,VALID,21.1195,VALID,93,VALID,1.75276,
2000-05-16, 00:27:01,VALID,918.607,VALID,0,VALID,95.6743,VALID,-0.0679233,VALID,21.1093,VALID,95,VALID,1.9204,
2000-05-16, 00:28:00,VALID,918.608,VALID,0,VALID,95.6971,VALID,-0.0679233,VALID,21.1297,VALID,91,VALID,1.70915,
2000-05-16, 00:29:00,VALID,918.597,VALID,0,VALID,95.5598,VALID,-0.0849042,VALID,21.1198,VALID,89,VALID,1.75758,
2000-05-16, 00:30:00,VALID,918.604,VALID,0,VALID,95.5687,VALID,-0.0679233,VALID,21.1101,VALID,96,VALID,1.78758,
2000-05-16, 00:31:00,VALID,918.593,VALID,0,VALID,95.6298,VALID,-0.0679233,VALID,21.1068,VALID,93,VALID,1.41068,
2000-05-16, 00:32:00,VALID,918.598,VALID,0,VALID,95.5484,VALID,-0.0339617,VALID,21.0966,VALID,77,VALID,1.69366,
2000-05-16, 00:33:01,VALID,918.615,VALID,0,VALID,95.5891,VALID,-0.0849042,VALID,21.0457,VALID,83,VALID,1.36068,
2000-05-16, 00:34:00,VALID,918.62,VALID,0,VALID,95.8815,VALID,-0.0509425,VALID,21.0193,VALID,97,VALID,1.44119,
2000-05-16, 00:35:00,VALID,918.601,VALID,0,VALID,95.8383,VALID,-0.0339617,VALID,21.0228,VALID,86,VALID,1.63373,
2000-05-16, 00:36:01,VALID,918.598,VALID,0,VALID,95.8167,VALID,-0.0339617,VALID,20.99,VALID,92,VALID,0.92272,
2000-05-16, 00:37:00,VALID,918.597,VALID,0,VALID,95.79,VALID,-0.0849042,VALID,21.0099,VALID,96,VALID,1.3904,
2000-05-16, 00:38:00,VALID,918.605,VALID,0,VALID,95.8624,VALID,-0.0679233,VALID,21.029,VALID,97,VALID,0.564867,
2000-05-16, 00:39:00,VALID,918.603,VALID,0,VALID,95.7595,VALID,-0.0339617,VALID,21.0455,VALID,92,VALID,1.40182,
2000-05-16, 00:40:00,VALID,918.581,VALID,0,VALID,95.7785,VALID,-0.0509425,VALID,21.0551,VALID,89,VALID,1.37859,
2000-05-16, 00:41:00,VALID,918.563,VALID,0,VALID,95.5395,VALID,-0.0509425,VALID,21.0455,VALID,86,VALID,2.36103,
2000-05-16, 00:42:01,VALID,918.536,VALID,0,VALID,95.5229,VALID,-0.0679233,VALID,21.0164,VALID,54,VALID,1.12001,
2000-05-16, 00:43:00,VALID,918.522,VALID,0,VALID,95.5751,VALID,-0.0849042,VALID,21.0102,VALID,94,VALID,1.523,
2000-05-16, 00:44:00,VALID,918.49,VALID,0,VALID,95.5077,VALID,-0.0849042,VALID,21.0169,VALID,93,VALID,1.67256,
2000-05-16, 00:45:01,VALID,918.457,VALID,0,VALID,95.5446,VALID,-0.0849042,VALID,21.0169,VALID,89,VALID,1.54455,
2000-05-16, 00:46:00,VALID,918.433,VALID,0,VALID,95.5,VALID,-0.101885,VALID,21.004,VALID,87,VALID,1.1808,
2000-05-16, 00:47:00,VALID,918.42,VALID,0,VALID,95.5878,VALID,-0.0509425,VALID,21.0002,VALID,105,VALID,0.897727,
2000-05-16, 00:48:00,VALID,918.406,VALID,0,VALID,95.598,VALID,-0.0849042,VALID,21.0166,VALID,96,VALID,1.44658,
2000-05-16, 00:49:01,VALID,918.388,VALID,0,VALID,95.4377,VALID,-0.0849042,VALID,20.9937,VALID,93,VALID,1.60959,
2000-05-16, 00:50:00,VALID,918.365,VALID,0,VALID,95.4263,VALID,-0.101885,VALID,21.004,VALID,71,VALID,0.876894,
2000-05-16, 00:51:01,VALID,918.354,VALID,0,VALID,95.2801,VALID,-0.101885,VALID,20.9937,VALID,352,VALID,0.617622,
2000-05-16, 00:52:00,VALID,918.337,VALID,0,VALID,95.1059,VALID,-0.0849042,VALID,20.9744,VALID,71,VALID,0.727431,
2000-05-16, 00:53:00,VALID,918.307,VALID,0,VALID,95.3207,VALID,-0.0679233,VALID,20.9978,VALID,82,VALID,0.869485,
2000-05-16, 00:54:01,VALID,918.283,VALID,0,VALID,95.2228,VALID,-0.0849042,VALID,21.0069,VALID,72,VALID,0.802154,
2000-05-16, 00:55:00,VALID,918.27,VALID,0,VALID,95.0308,VALID,-0.0509425,VALID,20.9878,VALID,45,VALID,0.933259,
2000-05-16, 00:56:00,VALID,918.272,VALID,0,VALID,95.3335,VALID,-0.101885,VALID,20.9393,VALID,89,VALID,0.608428,
2000-05-16, 00:57:00,VALID,918.269,VALID,0,VALID,95.467,VALID,-0.101885,VALID,20.9525,VALID,83,VALID,0.47614,
2000-05-16, 00:58:01,VALID,918.273,VALID,0,VALID,95.5967,VALID,-0.0679233,VALID,20.9493,VALID,97,VALID,0.921242,
2000-05-16, 00:59:00,VALID,918.285,VALID,0,VALID,95.6844,VALID,-0.101885,VALID,20.9617,VALID,96,VALID,0.824337,
2000-05-16, 01:00:01,VALID,918.265,VALID,0,VALID,95.659,VALID,-0.0849042,VALID,20.9843,VALID,99,VALID,0.743877,
2000-05-16, 01:01:00,VALID,918.252,VALID,0,VALID,95.5636,VALID,-0.101885,VALID,20.9975,VALID,96,VALID,0.731988,
2000-05-16, 01:02:00,VALID,918.247,VALID,0,VALID,95.4873,VALID,-0.101885,VALID,20.9943,VALID,103,VALID,0.758042,
2000-05-16, 01:03:01,VALID,918.235,VALID,0,VALID,95.4797,VALID,-0.101885,VALID,20.9978,VALID,96,VALID,1.00359,
2000-05-16, 01:04:00,VALID,918.232,VALID,0,VALID,95.4225,VALID,-0.0679233,VALID,20.9878,VALID,63,VALID,0.496652,
2000-05-16, 01:05:00,VALID,918.224,VALID,0,VALID,95.4479,VALID,-0.0849042,VALID,20.9555,VALID,95,VALID,0.958807,
2000-05-16, 01:06:01,VALID,918.214,VALID,0,VALID,95.5725,VALID,-0.0679233,VALID,20.952,VALID,96,VALID,0.961782,
2000-05-16, 01:07:00,VALID,918.177,VALID,0,VALID,95.3144,VALID,-0.101885,VALID,20.9232,VALID,86,VALID,1.49641,
2000-05-16, 01:08:00,VALID,918.134,VALID,0,VALID,95.2737,VALID,-0.0339617,VALID,20.8896,VALID,90,VALID,1.20313,
2000-05-16, 01:09:01,VALID,918.111,VALID,0,VALID,95.3386,VALID,0,VALID,20.8634,VALID,88,VALID,0.889974,
2000-05-16, 01:10:01,VALID,918.095,VALID,0,VALID,95.3792,VALID,0.0169808,VALID,20.8476,VALID,95,VALID,0.352865,
2000-05-16, 01:11:01,VALID,918.083,VALID,0,VALID,95.3144,VALID,0.0169808,VALID,20.8212,VALID,111,VALID,0.386029,
2000-05-16, 01:12:01,VALID,918.07,VALID,0,VALID,95.3182,VALID,0.0339617,VALID,20.8185,VALID,93,VALID,0.637458,
2000-05-16, 01:13:01,VALID,918.062,VALID,0,VALID,95.3462,VALID,0.0169808,VALID,20.7988,VALID,105,VALID,0.792411,
2000-05-16, 01:14:00,VALID,918.058,VALID,0,VALID,95.4924,VALID,0.0169808,VALID,20.7961,VALID,100,VALID,0.480114,
2000-05-16, 01:15:01,VALID,918.057,VALID,0,VALID,95.4873,VALID,0.0169808,VALID,20.8023,VALID,106,VALID,0.427787,
2000-05-16, 01:16:00,VALID,918.041,VALID,0,VALID,95.3792,VALID,-0.0169808,VALID,20.7996,VALID,115,VALID,0.750211,
2000-05-16, 01:17:00,VALID,918.006,VALID,0,VALID,95.3297,VALID,0.0169808,VALID,20.7765,VALID,111,VALID,0.708807,
2000-05-16, 01:18:01,VALID,917.97,VALID,0,VALID,95.3665,VALID,0,VALID,20.7469,VALID,116,VALID,0.455295,
2000-05-16, 01:19:00,VALID,917.937,VALID,0,VALID,95.4835,VALID,0.0509425,VALID,20.7372,VALID,116,VALID,0.00542535,
2000-05-16, 01:20:01,VALID,917.895,VALID,0,VALID,95.5369,VALID,0.0169808,VALID,20.7245,VALID,122,VALID,0.410156,
2000-05-16, 01:21:01,VALID,917.854,VALID,0,VALID,95.481,VALID,0.0679233,VALID,20.7215,VALID,100,VALID,0.563133,
2000-05-16, 01:22:01,VALID,917.841,VALID,0,VALID,95.4543,VALID,0,VALID,20.7051,VALID,107,VALID,0.493973,
2000-05-16, 01:23:01,VALID,917.82,VALID,0,VALID,95.4428,VALID,-0.0339617,VALID,20.7029,VALID,107,VALID,0.69839,
2000-05-16, 01:24:01,VALID,917.815,VALID,0,VALID,95.5013,VALID,-0.0509425,VALID,20.7266,VALID,110,VALID,0.772593,
2000-05-16, 01:25:01,VALID,917.775,VALID,0,VALID,95.4009,VALID,-0.0509425,VALID,20.7194,VALID,98,VALID,0.925887,
2000-05-16, 01:26:01,VALID,917.724,VALID,0,VALID,95.2851,VALID,-0.0679233,VALID,20.7097,VALID,82,VALID,1.00663,
2000-05-16, 01:27:01,VALID,917.69,VALID,0,VALID,95.247,VALID,-0.0509425,VALID,20.6779,VALID,83,VALID,0.867622,
2000-05-16, 01:28:01,VALID,917.664,VALID,0,VALID,95.4148,VALID,0,VALID,20.6291,VALID,94,VALID,1.01997,
2000-05-16, 01:29:01,VALID,917.634,VALID,0,VALID,95.5344,VALID,-0.0679233,VALID,20.6065,VALID,78,VALID,0.691866,
2000-05-16, 01:30:01,VALID,917.654,VALID,0,VALID,95.4123,VALID,-0.0679233,VALID,20.5904,VALID,91,VALID,1.03906,
2000-05-16, 01:31:01,VALID,917.69,VALID,0,VALID,95.4377,VALID,-0.0509425,VALID,20.5645,VALID,86,VALID,0.722991,
2000-05-16, 01:32:01,VALID,917.737,VALID,0,VALID,95.4085,VALID,-0.0339617,VALID,20.5384,VALID,48,VALID,0.886837,
2000-05-16, 01:33:01,VALID,917.774,VALID,0,VALID,95.4581,VALID,-0.0679233,VALID,20.523,VALID,76,VALID,0.70228,
2000-05-16, 01:34:01,VALID,917.789,VALID,0,VALID,95.4136,VALID,-0.0339617,VALID,20.5193,VALID,56,VALID,0.67103,
2000-05-16, 01:35:01,VALID,917.784,VALID,0,VALID,95.2801,VALID,-0.0339617,VALID,20.5131,VALID,53,VALID,0.886364,
2000-05-16, 01:36:01,VALID,917.76,VALID,0,VALID,95.1961,VALID,-0.0509425,VALID,20.5099,VALID,69,VALID,1.01693,
2000-05-16, 01:37:01,VALID,917.724,VALID,0,VALID,95.0791,VALID,-0.0849042,VALID,20.494,VALID,83,VALID,1.11589,
2000-05-16, 01:38:01,VALID,917.682,VALID,0,VALID,95.0715,VALID,-0.0679233,VALID,20.5037,VALID,91,VALID,0.903722,
2000-05-16, 01:39:01,VALID,917.669,VALID,0,VALID,95.1071,VALID,-0.0509425,VALID,20.5099,VALID,61,VALID,0.268581,
2000-05-16, 01:40:01,VALID,917.665,VALID,0,VALID,95.1351,VALID,-0.0849042,VALID,20.5201,VALID,68,VALID,0.2,
2000-05-16, 01:41:01,VALID,917.655,VALID,0,VALID,95.1504,VALID,-0.0339617,VALID,20.5258,VALID,92,VALID,0.768939,
2000-05-16, 01:42:00,VALID,917.656,VALID,0,VALID,95.1147,VALID,-0.0509425,VALID,20.5556,VALID,88,VALID,1.26372,
2000-05-16, 01:43:00,VALID,917.669,VALID,0,VALID,94.9431,VALID,-0.0849042,VALID,20.5327,VALID,89,VALID,0.641892,
2000-05-16, 01:44:00,VALID,917.692,VALID,0,VALID,94.9456,VALID,-0.0339617,VALID,20.5265,VALID,63,VALID,0.172112,
2000-05-16, 01:45:00,VALID,917.7,VALID,0,VALID,95.2381,VALID,-0.0849042,VALID,20.523,VALID,74,VALID,0.0733507,
2000-05-16, 01:46:00,VALID,917.714,VALID,0,VALID,95.4009,VALID,-0.0679233,VALID,20.5171,VALID,84,VALID,0,
2000-05-16, 01:47:00,VALID,917.736,VALID,0,VALID,95.2228,VALID,-0.0679233,VALID,20.53,VALID,86,VALID,0.00919118,
2000-05-16, 01:48:00,VALID,917.751,VALID,0,VALID,94.877,VALID,-0.0679233,VALID,20.5069,VALID,148,VALID,0.0901605,
2000-05-16, 01:49:00,VALID,917.761,VALID,0,VALID,95.0092,VALID,-0.0509425,VALID,20.4975,VALID,194,VALID,0.123884,
2000-05-16, 01:50:00,VALID,917.777,VALID,0,VALID,95.2546,VALID,-0.0849042,VALID,20.4912,VALID,195,VALID,0.0250947,
2000-05-16, 01:51:00,VALID,917.764,VALID,0,VALID,95.5789,VALID,-0.0849042,VALID,20.4649,VALID,195,VALID,0.0629223,
2000-05-16, 01:52:00,VALID,917.771,VALID,0,VALID,95.8357,VALID,-0.0339617,VALID,20.4686,VALID,199,VALID,0.142525,
2000-05-16, 01:53:00,VALID,917.763,VALID,0,VALID,95.7442,VALID,-0.101885,VALID,20.4331,VALID,217,VALID,0.201468,
2000-05-16, 01:54:00,VALID,917.74,VALID,0,VALID,95.5891,VALID,-0.0679233,VALID,20.3948,VALID,244,VALID,0.764974,
2000-05-16, 01:55:00,VALID,917.706,VALID,0,VALID,95.5357,VALID,-0.0849042,VALID,20.3426,VALID,258,VALID,1.00586,
2000-05-16, 01:56:00,VALID,917.657,VALID,0,VALID,95.9375,VALID,-0.101885,VALID,20.3101,VALID,270,VALID,0.730928,
2000-05-16, 01:57:00,VALID,917.576,VALID,0,VALID,96.2109,VALID,-0.0679233,VALID,20.2847,VALID,279,VALID,0.100929,
2000-05-16, 01:58:00,VALID,917.509,VALID,0,VALID,96.3329,VALID,-0.101885,VALID,20.2683,VALID,230,VALID,0.00133929,
2000-05-16, 01:59:00,VALID,917.46,VALID,0,VALID,96.2745,VALID,-0.101885,VALID,20.2527,VALID,122,VALID,0,
2000-05-16, 02:00:00,VALID,917.449,VALID,0,VALID,96.0138,VALID,-0.101885,VALID,20.2268,VALID,97,VALID,0,
2000-05-16, 02:01:00,VALID,917.472,VALID,0,VALID,96.0163,VALID,-0.0679233,VALID,20.197,VALID,91,VALID,0,
2000-05-16, 02:02:00,VALID,917.507,VALID,0,VALID,96.1435,VALID,-0.0849042,VALID,20.1905,VALID,91,VALID,0,
2000-05-16, 02:03:00,VALID,917.535,VALID,0,VALID,95.9298,VALID,-0.0849042,VALID,20.1625,VALID,119,VALID,0,
2000-05-16, 02:04:00,VALID,917.564,VALID,0,VALID,95.7645,VALID,-0.0849042,VALID,20.1294,VALID,118,VALID,0,
2000-05-16, 02:05:00,VALID,917.566,VALID,0,VALID,95.6717,VALID,-0.101885,VALID,20.1075,VALID,115,VALID,0,
2000-05-16, 02:06:00,VALID,917.541,VALID,0,VALID,95.4212,VALID,-0.101885,VALID,20.062,VALID,115,VALID,0,
2000-05-16, 02:07:00,VALID,917.537,VALID,0,VALID,95.4009,VALID,-0.0849042,VALID,20.0198,VALID,115,VALID,0,
2000-05-16, 02:08:00,VALID,917.542,VALID,0,VALID,95.5026,VALID,-0.0849042,VALID,20.0007,VALID,115,VALID,0,
2000-05-16, 02:09:00,VALID,917.549,VALID,0,VALID,95.6488,VALID,-0.0849042,VALID,19.9972,VALID,115,VALID,0,
2000-05-16, 02:10:00,VALID,917.565,VALID,0,VALID,95.5725,VALID,0,VALID,19.9733,VALID,115,VALID,0,
2000-05-16, 02:11:00,VALID,917.56,VALID,0,VALID,95.5369,VALID,0,VALID,19.9445,VALID,115,VALID,0,
2000-05-16, 02:12:00,VALID,917.525,VALID,0,VALID,95.6704,VALID,0,VALID,19.9445,VALID,115,VALID,0,
2000-05-16, 02:13:00,VALID,917.498,VALID,0,VALID,95.7798,VALID,0,VALID,19.9345,VALID,115,VALID,0,
2000-05-16, 02:14:00,VALID,917.46,VALID,0,VALID,95.687,VALID,0.0169808,VALID,19.9249,VALID,115,VALID,0,
2000-05-16, 02:15:00,VALID,917.456,VALID,0,VALID,95.8269,VALID,0.0169808,VALID,19.9152,VALID,115,VALID,0,
2000-05-16, 02:16:00,VALID,917.448,VALID,0,VALID,95.8307,VALID,0,VALID,19.9186,VALID,64,VALID,0,
2000-05-16, 02:17:00,VALID,917.455,VALID,0,VALID,95.603,VALID,0.0169808,VALID,19.9025,VALID,61,VALID,0,
2000-05-16, 02:18:00,VALID,917.478,VALID,0,VALID,95.6488,VALID,0,VALID,19.8704,VALID,61,VALID,0,
2000-05-16, 02:19:00,VALID,917.478,VALID,0,VALID,95.5738,VALID,0.0169808,VALID,19.8411,VALID,61,VALID,0,
2000-05-16, 02:20:00,VALID,917.479,VALID,0,VALID,96.1969,VALID,0,VALID,19.867,VALID,62,VALID,0,
2000-05-16, 02:21:00,VALID,917.459,VALID,0,VALID,95.804,VALID,0.0339617,VALID,19.8533,VALID,71,VALID,0,
2000-05-16, 02:22:00,VALID,917.418,VALID,0,VALID,95.9197,VALID,0,VALID,19.8734,VALID,61,VALID,0,
2000-05-16, 02:23:00,VALID,917.377,VALID,0,VALID,96.5987,VALID,-0.0679233,VALID,19.9358,VALID,42,VALID,0,
2000-05-16, 02:24:00,VALID,917.345,VALID,0,VALID,96.8085,VALID,-0.0849042,VALID,19.9756,VALID,42,VALID,0,
2000-05-16, 02:25:00,VALID,917.289,VALID,0,VALID,96.9777,VALID,-0.101885,VALID,20.0173,VALID,42,VALID,0,
2000-05-16, 02:26:00,VALID,917.256,VALID,0,VALID,97.0705,VALID,-0.0849042,VALID,20.03,VALID,42,VALID,0,
2000-05-16, 02:27:00,VALID,917.23,VALID,0,VALID,97.0654,VALID,-0.101885,VALID,20.0302,VALID,42,VALID,0,
2000-05-16, 02:28:00,VALID,917.219,VALID,0,VALID,96.9026,VALID,-0.0849042,VALID,20.027,VALID,41,VALID,0,
2000-05-16, 02:29:00,VALID,917.21,VALID,0,VALID,96.5479,VALID,-0.101885,VALID,20.0106,VALID,52,VALID,0,
2000-05-16, 02:30:00,VALID,917.21,VALID,0,VALID,96.6318,VALID,-0.0849042,VALID,20.0171,VALID,73,VALID,0,
2000-05-16, 02:31:00,VALID,917.232,VALID,0,VALID,96.497,VALID,-0.0849042,VALID,20.0178,VALID,106,VALID,0,
2000-05-16, 02:32:00,VALID,917.253,VALID,0,VALID,95.9744,VALID,-0.0849042,VALID,19.9753,VALID,137,VALID,0,
2000-05-16, 02:33:00,VALID,917.277,VALID,0,VALID,95.6437,VALID,-0.101885,VALID,19.9462,VALID,136,VALID,0,
2000-05-16, 02:34:00,VALID,917.277,VALID,0,VALID,95.3703,VALID,-0.118866,VALID,19.9144,VALID,136,VALID,0,
2000-05-16, 02:35:00,VALID,917.257,VALID,0,VALID,95.5089,VALID,-0.101885,VALID,19.8983,VALID,136,VALID,0,
2000-05-16, 02:36:00,VALID,917.227,VALID,0,VALID,95.7188,VALID,-0.101885,VALID,19.8588,VALID,146,VALID,0,
2000-05-16, 02:37:00,VALID,917.202,VALID,0,VALID,95.8281,VALID,-0.101885,VALID,19.8458,VALID,252,VALID,0,
2000-05-16, 02:38:00,VALID,917.181,VALID,0,VALID,95.954,VALID,-0.0679233,VALID,19.8685,VALID,252,VALID,0,
2000-05-16, 02:39:00,VALID,917.186,VALID,0,VALID,95.7264,VALID,0,VALID,19.861,VALID,252,VALID,0,
2000-05-16, 02:40:00,VALID,917.196,VALID,0,VALID,95.7505,VALID,0.0169808,VALID,19.8704,VALID,307,VALID,0,
2000-05-16, 02:41:00,VALID,917.221,VALID,0,VALID,96.2935,VALID,0,VALID,19.9326,VALID,313,VALID,0,
2000-05-16, 02:42:00,VALID,917.242,VALID,0,VALID,97.0272,VALID,0,VALID,19.9927,VALID,313,VALID,0,
2000-05-16, 02:43:00,VALID,917.256,VALID,0,VALID,97.2002,VALID,0.0169808,VALID,20.0198,VALID,313,VALID,0,
2000-05-16, 02:44:00,VALID,917.266,VALID,0,VALID,97.2472,VALID,0,VALID,20.0193,VALID,313,VALID,0,
2000-05-16, 02:45:00,VALID,917.242,VALID,0,VALID,97.162,VALID,0.0169808,VALID,20.0322,VALID,313,VALID,0,
2000-05-16, 02:46:00,VALID,917.213,VALID,0,VALID,96.8657,VALID,0,VALID,20.0096,VALID,314,VALID,0,
2000-05-16, 02:47:00,VALID,917.18,VALID,0,VALID,96.188,VALID,-0.0169808,VALID,19.9738,VALID,61,VALID,0,
2000-05-16, 02:48:00,VALID,917.113,VALID,0,VALID,96.0061,VALID,0.0169808,VALID,19.948,VALID,87,VALID,0,
2000-05-16, 02:49:00,VALID,917.083,VALID,0,VALID,96.5796,VALID,0,VALID,19.9477,VALID,88,VALID,0.249783,
2000-05-16, 02:50:00,VALID,917.057,VALID,0,VALID,96.6369,VALID,0,VALID,19.9323,VALID,88,VALID,0.0703125,
2000-05-16, 02:51:00,VALID,917.02,VALID,0,VALID,96.8429,VALID,0,VALID,19.9189,VALID,88,VALID,0.000844595,
2000-05-16, 02:52:00,VALID,916.982,VALID,0,VALID,97.0603,VALID,0.0169808,VALID,19.942,VALID,88,VALID,0,
2000-05-16, 02:53:00,VALID,916.948,VALID,0,VALID,97.1633,VALID,-0.0679233,VALID,19.9522,VALID,88,VALID,0,
2000-05-16, 02:54:00,VALID,916.931,VALID,0,VALID,96.9904,VALID,-0.0679233,VALID,19.9279,VALID,88,VALID,0,
2000-05-16, 02:55:00,VALID,916.929,VALID,0,VALID,96.7844,VALID,-0.0849042,VALID,19.8784,VALID,89,VALID,0.116343,
2000-05-16, 02:56:00,VALID,916.934,VALID,0,VALID,96.422,VALID,-0.0849042,VALID,19.8496,VALID,94,VALID,0.0123106,
2000-05-16, 02:57:00,VALID,916.935,VALID,0,VALID,96.2655,VALID,-0.0509425,VALID,19.8267,VALID,94,VALID,0.000868056,
2000-05-16, 02:58:00,VALID,916.932,VALID,0,VALID,96.2592,VALID,-0.0849042,VALID,19.8113,VALID,94,VALID,0.00347222,
2000-05-16, 02:59:00,VALID,916.894,VALID,0,VALID,96.2897,VALID,-0.0679233,VALID,19.8014,VALID,94,VALID,0,
2000-05-16, 03:00:00,VALID,916.826,VALID,0,VALID,96.202,VALID,-0.101885,VALID,19.7852,VALID,94,VALID,0.00126689,
2000-05-16, 03:01:00,VALID,916.773,VALID,0,VALID,96.1219,VALID,-0.0849042,VALID,19.7723,VALID,94,VALID,0,
2000-05-16, 03:02:00,VALID,916.72,VALID,0,VALID,96.4194,VALID,-0.0849042,VALID,19.7459,VALID,94,VALID,0,
2000-05-16, 03:03:00,VALID,916.723,VALID,0,VALID,96.3571,VALID,-0.0849042,VALID,19.7238,VALID,94,VALID,0,
2000-05-16, 03:04:00,VALID,916.746,VALID,0,VALID,96.4067,VALID,-0.0849042,VALID,19.7107,VALID,92,VALID,0.548775,
2000-05-16, 03:05:00,VALID,916.77,VALID,0,VALID,96.277,VALID,-0.0509425,VALID,19.6915,VALID,89,VALID,0.791667,
2000-05-16, 03:06:00,VALID,916.826,VALID,0,VALID,96.4194,VALID,-0.0679233,VALID,19.6781,VALID,78,VALID,0.595052,
2000-05-16, 03:07:00,VALID,916.855,VALID,0,VALID,96.8034,VALID,-0.101885,VALID,19.7104,VALID,56,VALID,0.630208,
2000-05-16, 03:08:00,VALID,916.87,VALID,0,VALID,97.0044,VALID,-0.101885,VALID,19.7467,VALID,49,VALID,0.500919,
2000-05-16, 03:09:00,VALID,916.82,VALID,0,VALID,97.1035,VALID,-0.0849042,VALID,19.7787,VALID,54,VALID,0.0964949,
2000-05-16, 03:10:00,VALID,916.772,VALID,0,VALID,97.2867,VALID,-0.0509425,VALID,19.8399,VALID,328,VALID,0.43192,
2000-05-16, 03:11:00,VALID,916.724,VALID,0,VALID,97.5028,VALID,-0.0509425,VALID,19.8784,VALID,304,VALID,0.372869,
2000-05-16, 03:12:00,VALID,916.659,VALID,0,VALID,97.6948,VALID,0,VALID,19.9211,VALID,307,VALID,0.382179,
2000-05-16, 03:13:00,VALID,916.607,VALID,0,VALID,97.7978,VALID,-0.0849042,VALID,19.9271,VALID,310,VALID,0.051098,
2000-05-16, 03:14:00,VALID,916.575,VALID,0,VALID,97.7978,VALID,-0.0679233,VALID,19.9107,VALID,1,VALID,0.175189,
2000-05-16, 03:15:00,VALID,916.541,VALID,0,VALID,97.4825,VALID,-0.0509425,VALID,19.869,VALID,88,VALID,0.669922,
2000-05-16, 03:16:00,VALID,916.535,VALID,0,VALID,97.2841,VALID,-0.0339617,VALID,19.8627,VALID,77,VALID,0.622179,
2000-05-16, 03:17:00,VALID,916.541,VALID,0,VALID,97.2765,VALID,-0.0509425,VALID,19.866,VALID,91,VALID,0.611443,
2000-05-16, 03:18:00,VALID,916.525,VALID,0,VALID,96.9802,VALID,-0.101885,VALID,19.8041,VALID,93,VALID,0.52766,
2000-05-16, 03:19:00,VALID,916.495,VALID,0,VALID,96.6394,VALID,-0.101885,VALID,19.7599,VALID,92,VALID,0.435045,
2000-05-16, 03:20:00,VALID,916.441,VALID,0,VALID,96.6508,VALID,-0.101885,VALID,19.7298,VALID,91,VALID,0.158617,
2000-05-16, 03:21:00,VALID,916.391,VALID,0,VALID,96.6496,VALID,-0.0509425,VALID,19.7042,VALID,92,VALID,0,
2000-05-16, 03:22:00,VALID,916.365,VALID,0,VALID,96.6165,VALID,-0.101885,VALID,19.6781,VALID,92,VALID,0,
2000-05-16, 03:23:00,VALID,916.353,VALID,0,VALID,96.6063,VALID,-0.0679233,VALID,19.6654,VALID,92,VALID,0,
2000-05-16, 03:24:00,VALID,916.358,VALID,0,VALID,96.6343,VALID,-0.0679233,VALID,19.6595,VALID,93,VALID,0.206597,
2000-05-16, 03:25:00,VALID,916.365,VALID,0,VALID,96.5517,VALID,-0.0509425,VALID,19.6692,VALID,94,VALID,0.51671,
2000-05-16, 03:26:00,VALID,916.394,VALID,0,VALID,96.3482,VALID,-0.0849042,VALID,19.656,VALID,91,VALID,0.0847886,
2000-05-16, 03:27:00,VALID,916.426,VALID,0,VALID,96.2757,VALID,-0.0679233,VALID,19.6423,VALID,91,VALID,0.0247044,
2000-05-16, 03:28:00,VALID,916.443,VALID,0,VALID,96.1943,VALID,-0.101885,VALID,19.6595,VALID,91,VALID,0.0430804,
2000-05-16, 03:29:00,VALID,916.476,VALID,0,VALID,96.1015,VALID,-0.101885,VALID,19.6597,VALID,92,VALID,0.000473485,
2000-05-16, 03:30:00,VALID,916.541,VALID,0,VALID,96.1028,VALID,-0.101885,VALID,19.6523,VALID,93,VALID,0.0464527,
2000-05-16, 03:31:00,VALID,916.585,VALID,0,VALID,96.0354,VALID,-0.101885,VALID,19.6724,VALID,93,VALID,0,
2000-05-16, 03:32:00,VALID,916.626,VALID,0,VALID,95.926,VALID,-0.101885,VALID,19.6689,VALID,93,VALID,0.0859375,
2000-05-16, 03:33:00,VALID,916.654,VALID,0,VALID,95.8981,VALID,-0.0849042,VALID,19.6885,VALID,74,VALID,0.00564236,
2000-05-16, 03:34:00,VALID,916.661,VALID,0,VALID,96.085,VALID,-0.0679233,VALID,19.6786,VALID,83,VALID,0.0262587,